Voltar ao catálogo

BREEZE-M DEB

LostHEO
NORAD 34232·DEBRIS·🇷🇺 Russia

Lançado Feb 28, 2006 de Baikonur Cosmodrome

Loading…

Próximas Passagens (próximas 24 horas)

TLE

ObsoletoSource: Space-Track

Época: Sep 11, 2010, 05:31 UTC

1 34232U 06006AX  10254.23028262  .00028099  00000-0  13005-1 0  9991
2 34232 051.5947 322.1890 5042075 203.5257 121.2092 05.45934378 46082

Acompanhe BREEZE-M DEB em tempo real com AllMySat

Download on the App Store